When you browse on this site, cookies collect data to enhance your experience and personalize the content and advertising you see.
Visit our Privacy Policy to learn more. By continuing to use the site, you agree to this use of cookies and data.
  • In Netherlands
  • List of Countries
  • For 7 days
  • Water Temperature
  • Weather Map
  • Weather Widgets
  • user-avatar
    Login

    Hourly Weather Vidin

    Today, 21 November, Thursday

    Time Temperature Precipitation Wind Pressure Humidity
    00:00 +11°C° 0 mm 1 mps 759 mmHg 92%
    01:00 +11°C° 0 mm 1 mps 759 mmHg 93%
    02:00 +11°C° 0 mm 1 mps 759 mmHg 93%
    03:00 +11°C° 0 mm 1 mps 759 mmHg 94%
    04:00 +11°C° 0 mm 1 mps 759 mmHg 94%
    05:00 +11°C° 0 mm 1 mps 759 mmHg 94%
    06:00 +11°C° 0 mm 1 mps 759 mmHg 95%
    07:00 +11°C° 0 mm 1 mps 759 mmHg 95%
    08:00 +11°C° 0 mm 1 mps 759 mmHg 95%
    09:00 +12°C° 0 mm 2 mps 759 mmHg 92%
    10:00 +13°C° 0 mm 2 mps 759 mmHg 88%
    11:00 +14°C° 0 mm 2 mps 759 mmHg 85%
    12:00 +14°C° 0 mm 2 mps 759 mmHg 83%
    13:00 +15°C° 0 mm 2 mps 758 mmHg 81%
    14:00 +15°C° 0 mm 2 mps 758 mmHg 79%
    15:00 +14°C° 0.2 mm 3 mps 758 mmHg 80%
    16:00 +14°C° 0.2 mm 3 mps 758 mmHg 82%
    17:00 +14°C° 0.2 mm 4 mps 758 mmHg 83%
    18:00 +13°C° 0.3 mm 4 mps 758 mmHg 84%
    19:00 +13°C° 0.3 mm 5 mps 758 mmHg 85%
    20:00 +13°C° 0.3 mm 5 mps 759 mmHg 86%
    21:00 +13°C° 0.2 mm 5 mps 759 mmHg 86%
    22:00 +13°C° 0.2 mm 6 mps 759 mmHg 86%
    23:00 +13°C° 0.2 mm 6 mps 759 mmHg 86%

    Tomorrow, 22 November, Friday

    Time Temperature Precipitation Wind Pressure Humidity
    00:00 +11°C° 0.6 mm 7 mps 759 mmHg 86%
    01:00 +10°C° 0.6 mm 8 mps 759 mmHg 86%
    02:00 +9°C° 0.6 mm 8 mps 759 mmHg 86%
    03:00 +9°C° 0.8 mm 8 mps 759 mmHg 86%
    04:00 +7°C° 0.8 mm 8 mps 759 mmHg 86%
    05:00 +8°C° 0.8 mm 7 mps 759 mmHg 86%
    06:00 +6°C° 1.7 mm 7 mps 760 mmHg 87%
    07:00 +6°C° 1.7 mm 7 mps 760 mmHg 88%
    08:00 +7°C° 1.7 mm 6 mps 760 mmHg 88%
    09:00 +5°C° 1.4 mm 6 mps 761 mmHg 88%
    10:00 +5°C° 1.4 mm 6 mps 761 mmHg 88%
    11:00 +5°C° 1.4 mm 7 mps 761 mmHg 88%
    12:00 +4°C° 0.7 mm 6 mps 761 mmHg 88%
    13:00 +4°C° 0.7 mm 6 mps 761 mmHg 87%
    14:00 +4°C° 0.7 mm 6 mps 761 mmHg 87%
    15:00 +3°C° 0.4 mm 6 mps 761 mmHg 88%
    16:00 +3°C° 0.4 mm 6 mps 762 mmHg 88%
    17:00 +3°C° 0.4 mm 5 mps 762 mmHg 88%
    18:00 +3°C° 0.2 mm 5 mps 762 mmHg 88%
    19:00 +3°C° 0.2 mm 5 mps 762 mmHg 87%
    20:00 +2°C° 0.2 mm 5 mps 763 mmHg 87%
    21:00 +2°C° 0 mm 5 mps 763 mmHg 86%
    22:00 +2°C° 0 mm 5 mps 763 mmHg 86%
    23:00 +2°C° 0 mm 5 mps 763 mmHg 86%

    Day after tomorrow, 23 November, Saturday

    Time Temperature Precipitation Wind Pressure Humidity
    00:00 +2°C° 0 mm 5 mps 763 mmHg 86%
    01:00 +2°C° 0 mm 5 mps 763 mmHg 86%
    02:00 +3°C° 0 mm 4 mps 763 mmHg 86%
    03:00 +3°C° 0 mm 4 mps 763 mmHg 86%
    04:00 +3°C° 0 mm 4 mps 763 mmHg 85%
    05:00 +3°C° 0 mm 4 mps 763 mmHg 85%
    06:00 +3°C° 0 mm 4 mps 763 mmHg 83%
    07:00 +3°C° 0 mm 4 mps 763 mmHg 82%
    08:00 +3°C° 0 mm 4 mps 763 mmHg 81%
    09:00 +3°C° 0 mm 3 mps 763 mmHg 79%
    10:00 +4°C° 0 mm 3 mps 763 mmHg 77%
    11:00 +4°C° 0 mm 3 mps 763 mmHg 76%
    12:00 +4°C° 0 mm 3 mps 763 mmHg 75%
    13:00 +4°C° 0 mm 3 mps 762 mmHg 74%
    14:00 +5°C° 0 mm 3 mps 762 mmHg 73%
    15:00 +5°C° 0 mm 3 mps 762 mmHg 74%
    16:00 +5°C° 0 mm 3 mps 761 mmHg 75%
    17:00 +5°C° 0 mm 3 mps 761 mmHg 76%
    18:00 +4°C° 0 mm 3 mps 762 mmHg 77%
    19:00 +4°C° 0 mm 3 mps 762 mmHg 78%
    20:00 +4°C° 0 mm 3 mps 762 mmHg 79%
    21:00 +5°C° 0 mm 2 mps 762 mmHg 80%
    22:00 +5°C° 0 mm 2 mps 762 mmHg 81%
    23:00 +5°C° 0 mm 2 mps 762 mmHg 83%

    24 November, Sunday

    Time Temperature Precipitation Wind Pressure Humidity
    00:00 +5°C° 0 mm 2 mps 762 mmHg 83%
    01:00 +5°C° 0 mm 2 mps 762 mmHg 84%
    02:00 +5°C° 0 mm 2 mps 762 mmHg 84%
    03:00 +5°C° 0 mm 2 mps 762 mmHg 84%
    04:00 +5°C° 0 mm 2 mps 762 mmHg 84%
    05:00 +5°C° 0 mm 2 mps 761 mmHg 85%
    06:00 +5°C° 0 mm 2 mps 761 mmHg 85%
    07:00 +6°C° 0 mm 1 mps 762 mmHg 85%
    08:00 +6°C° 0 mm 1 mps 762 mmHg 86%
    09:00 +7°C° 0 mm 1 mps 762 mmHg 84%
    10:00 +6°C° 0 mm 2 mps 762 mmHg 83%
    11:00 +7°C° 0 mm 2 mps 762 mmHg 82%
    12:00 +7°C° 0 mm 2 mps 761 mmHg 81%
    13:00 +8°C° 0 mm 2 mps 761 mmHg 80%
    14:00 +8°C° 0 mm 2 mps 760 mmHg 79%
    15:00 +8°C° 0 mm 2 mps 761 mmHg 80%
    16:00 +8°C° 0 mm 2 mps 761 mmHg 82%
    17:00 +9°C° 0 mm 1 mps 761 mmHg 83%
    18:00 +8°C° 0 mm 2 mps 761 mmHg 84%
    19:00 +8°C° 0 mm 2 mps 761 mmHg 84%
    20:00 +8°C° 0 mm 2 mps 761 mmHg 85%
    21:00 +8°C° 0 mm 2 mps 761 mmHg 85%
    22:00 +8°C° 0 mm 2 mps 761 mmHg 86%
    23:00 +8°C° 0 mm 2 mps 761 mmHg 86%

    25 November, Monday

    Time Temperature Precipitation Wind Pressure Humidity
    00:00 +8°C° 0 mm 2 mps 761 mmHg 86%
    01:00 +8°C° 0 mm 2 mps 761 mmHg 86%
    02:00 +8°C° 0 mm 2 mps 761 mmHg 86%
    03:00 +8°C° 0 mm 2 mps 761 mmHg 86%
    04:00 +8°C° 0 mm 2 mps 761 mmHg 86%
    05:00 +8°C° 0 mm 2 mps 761 mmHg 86%
    06:00 +9°C° 0 mm 1 mps 761 mmHg 86%
    07:00 +9°C° 0 mm 1 mps 761 mmHg 86%
    08:00 +9°C° 0 mm 1 mps 761 mmHg 86%
    09:00 +9°C° 0 mm 1 mps 761 mmHg 84%
    10:00 +9°C° 0 mm 1 mps 761 mmHg 82%
    11:00 +10°C° 0 mm 1 mps 761 mmHg 80%
    12:00 +10°C° 0 mm 1 mps 760 mmHg 78%
    13:00 +10°C° 0 mm 2 mps 760 mmHg 75%
    14:00 +12°C° 0 mm 2 mps 759 mmHg 73%
    15:00 +10°C° 0 mm 2 mps 759 mmHg 75%
    16:00 +11°C° 0 mm 1 mps 759 mmHg 76%
    17:00 +11°C° 0 mm 1 mps 759 mmHg 78%
    18:00 +11°C° 0 mm 1 mps 760 mmHg 78%
    19:00 +11°C° 0 mm 1 mps 760 mmHg 79%
    20:00 +11°C° 0 mm 1 mps 760 mmHg 80%
    21:00 +11°C° 0 mm 1 mps 760 mmHg 80%
    22:00 +10°C° 0 mm 1 mps 760 mmHg 81%
    23:00 +10°C° 0 mm 1 mps 760 mmHg 81%

    26 November, Tuesday

    Time Temperature Precipitation Wind Pressure Humidity
    00:00 +10°C° 0 mm 1 mps 760 mmHg 82%
    01:00 +10°C° 0 mm 1 mps 760 mmHg 83%
    02:00 +10°C° 0 mm 1 mps 759 mmHg 84%
    03:00 +9°C° 0 mm 1 mps 759 mmHg 84%
    04:00 +8°C° 0 mm 0 mps 759 mmHg 85%
    05:00 +8°C° 0 mm 0 mps 759 mmHg 85%
    06:00 +8°C° 0 mm 0 mps 759 mmHg 85%
    07:00 +9°C° 0 mm 0 mps 759 mmHg 85%
    08:00 +9°C° 0 mm 0 mps 759 mmHg 84%
    09:00 +9°C° 0 mm 0 mps 759 mmHg 82%
    10:00 +10°C° 0 mm 0 mps 759 mmHg 79%
    11:00 +10°C° 0 mm 0 mps 760 mmHg 77%
    12:00 +11°C° 0 mm 0 mps 759 mmHg 74%
    13:00 +11°C° 0 mm 0 mps 759 mmHg 71%
    14:00 +12°C° 0 mm 0 mps 758 mmHg 68%
    15:00 +11°C° 0 mm 0 mps 758 mmHg 70%
    16:00 +11°C° 0 mm 0 mps 759 mmHg 72%
    17:00 +11°C° 0 mm 0 mps 759 mmHg 74%
    18:00 +10°C° 0 mm 0 mps 759 mmHg 76%
    19:00 +10°C° 0 mm 0 mps 759 mmHg 77%
    20:00 +9°C° 0 mm 0 mps 760 mmHg 79%
    21:00 +9°C° 0 mm 0 mps 760 mmHg 80%
    22:00 +9°C° 0 mm 0 mps 760 mmHg 82%
    23:00 +9°C° 0 mm 0 mps 760 mmHg 83%
    Show more